Flag for Belgium Weather past 2 weeks in Charleroi, Belgium

Now
55 °F

Clear.


Feels Like: 54 °F
Forecast: 64 / 84 °F
Wind: 6 mph from Southeast

Location: Charleroi / Gosselies

Current Time: Aug 5, 2015 at 4:50:10 AM

Latest Report: Aug 5, 2015 at 3:50 AM


Visibility: 10 mi

Pressure: 30.09 "Hg

Humidity: 77%

Dew point: 48 °F

Location of CharleroiLocation

Historic Weather in Charleroi — Graph

°F

Charleroi temperature yesterday

Maximum temperature yesterday: 75 °F (at 12:20 AM)
Minimum temperature yesterday: 57 °F (at 11:50 AM)
Average temperature yesterday: 65 °F

Past Weeks' High & Low Weather Summary

 TemperatureHumidityPressure
High88 °F (Aug 3, 2:50 PM)100% (Jul 25, 7:20 AM)30.15 "Hg (Jul 25, 7:20 AM)
Low46 °F (Jul 31, 2:20 AM)24% (Aug 3, 4:20 PM)29.53 "Hg (Jul 25, 5:20 AM)
Average63 °F69%29.94 "Hg
* Reported Jul 21 3:20 AM — Aug 5 3:20 AM, Charleroi, Weather by CustomWeather, © 2015

Note: Actual official high and low records may vary slightly from our data, if they occured in-between our weather recording intervals... More about our weather records

Advertising

Charleroi weather history for previous 24 hours

 ConditionsComfort  
Time TempWeatherWind HumidityBarometerVisibility
3:20 AM
Wed, Aug 5
55 °FClear.5 mph77%30.09 "Hg10 mi
2:50 AM55 °FClear.5 mph77%30.09 "Hg10 mi
2:20 AM55 °FClear.3 mph77%30.09 "Hg10 mi
1:50 AM57 °FClear.1 mph72%30.09 "Hg10 mi
1:20 AM57 °FClear.2 mph72%30.09 "Hg10 mi
12:50 AM57 °FClear.2 mph72%30.09 "Hg10 mi
12:20 AM61 °FClear.2 mph59%30.09 "Hg10 mi
11:50 PM
Tue, Aug 4
59 °FClear.2 mph68%30.09 "Hg10 mi
11:20 PM61 °FPassing clouds.3 mph59%30.09 "HgN/A
10:50 PM61 °FPassing clouds.5 mph63%30.09 "HgN/A
10:20 PM61 °FPassing clouds.5 mph63%30.09 "HgN/A
9:50 PM63 °FPassing clouds.5 mph59%30.09 "HgN/A
9:20 PM63 °FPassing clouds.5 mph56%30.07 "HgN/A
8:50 PM64 °FPassing clouds.3 mph52%30.07 "HgN/A
8:20 PM66 °FPassing clouds.6 mph46%30.07 "HgN/A
7:50 PM68 °FPassing clouds.7 mph46%30.07 "HgN/A
7:20 PM68 °FPassing clouds.9 mph43%30.04 "HgN/A
6:50 PM70 °FPassing clouds.9 mph46%30.04 "HgN/A
6:20 PM70 °FScattered clouds.10 mph46%30.04 "HgN/A
5:50 PM70 °FScattered clouds.12 mph50%30.04 "HgN/A
5:20 PM68 °FScattered clouds.10 mph53%30.04 "HgN/A
4:50 PM70 °FScattered clouds.14 mph50%30.04 "HgN/A
4:20 PM68 °FScattered clouds.9 mph53%30.01 "HgN/A
3:50 PM70 °FScattered clouds.9 mph53%30.01 "HgN/A
3:20 PM66 °FScattered clouds.12 mph64%30.01 "HgN/A
2:50 PM66 °FScattered clouds.10 mph68%30.01 "HgN/A
2:20 PM64 °FScattered clouds.12 mph68%30.01 "HgN/A
1:50 PM64 °FPassing clouds.9 mph73%30.01 "HgN/A
1:20 PM61 °FPartly sunny.9 mph83%30.01 "HgN/A
12:50 PM59 °FPartly sunny.7 mph82%30.01 "HgN/A
12:20 PM59 °FPartly sunny.6 mph88%30.01 "HgN/A
11:50 AM57 °FPartly sunny.8 mph94%29.98 "HgN/A
11:20 AM59 °FBroken clouds.9 mph88%29.98 "HgN/A
10:50 AM59 °FPartly sunny.8 mph94%29.98 "Hg4 mi
10:20 AM61 °FFog.8 mph94%29.95 "Hg3 mi
9:50 AM61 °FLight rain. Partly sunny.7 mph94%29.95 "Hg3 mi
9:20 AM63 °FLight rain. Partly sunny.7 mph94%29.92 "Hg4 mi
8:50 AM63 °FLight rain. Partly sunny.6 mph94%29.92 "Hg3 mi
8:20 AM63 °FLight rain. Partly sunny.6 mph94%29.92 "Hg3 mi
7:50 AM64 °FLight rain. Broken clouds.7 mph94%29.92 "Hg2 mi
7:20 AM64 °FLight rain. Passing clouds.2 mph94%29.86 "Hg2 mi
6:50 AM64 °FSprinkles. Passing clouds.6 mph94%29.86 "Hg2 mi
6:20 AM64 °FSprinkles. Clear.3 mph88%29.86 "Hg3 mi
5:50 AM64 °FClear.6 mph88%29.86 "Hg4 mi
4:50 AM64 °FClear.2 mph94%29.86 "Hg4 mi
4:20 AM66 °FPassing clouds.6 mph88%29.83 "HgN/A
Weather by CustomWeather, © 2015

See weather overviewHow to use our weather pages